Location: Betpouey
(42.8833°N, 0.0333°E)
Time: 07:54:30
(UTC+00:00)

Cosmos 2369 Rocket - Pass Details

Date: 01 December 2020
Orbit: 829 x 852 km, 71.0° (Epoch: 17 January)

Event Time Altitude Azimuth Distance (km) Brightness Sun altitude
Rises 17:50:48 0° 336° (NNW) 3,421 5.5 -15.0°
Reaches altitude 10° 17:53:17 10° 338° (NNW) 2,479 4.7 -15.5°
Maximum altitude 17:58:59 77° 65° (ENE) 868 2.1 -16.5°
Drops below altitude 10° 18:04:37 10° 151° (SSE) 2,448 4.5 -17.5°
Sets 18:07:02 0° 153° (SSE) 3,374 5.2 -17.9°
